Location: Peebles
(55.6412°N, 3.1714°W)
Time: 18:18:21
(UTC+01:00)

Cosmos 1934 Rocket - Pass Details

Date: 01 February 2022
Orbit: 938 x 999 km, 83.0° (Epoch: 25 May)

Event Time Altitude Azimuth Distance (km) Brightness Sun altitude
Rises 19:47:23 0° 340° (NNW) 3,636 7.3 -25.3°
Reaches altitude 10° 19:51:03 10° 319° (NW) 2,676 6.9 -25.8°
Maximum altitude 19:54:13 15° 287° (WNW) 2,333 6.9 -26.3°
Drops below altitude 10° 19:57:23 10° 255° (WSW) 2,657 7.1 -26.7°
Sets 20:01:01 0° 233° (SW) 3,594 7.6 -27.2°
